FENGYUN 1C DEB

Satellite information

Favourite Embed

Satellite Type and Status

DEBRISIN ORBIT

Key statistics

Satellite FENGYUN 1C DEB at a glance.

Uptime

9609

Days in orbit

Revolutions

≈ 14.4

Per day

Orbit

SSO

Sun Synchronous Orbit

Inclination

98.9

Latest

Satellite identification and parameters

Extended collection of information and parameters for FENGYUN 1C DEB.

Object identification

Identified? True

Debris? True

Object name: FENGYUN 1C DEB

International designator: 1999-025QW

Object number (NORAD): 30093

Object ID (CCSDS): 30093

Country: PEOPLES REPUBLIC OF CHINA (PRC)

Current information (Y/N): Y

RCS size: SMALL

Orbital parameters

Period: 99.799 minutes

Inclination: 98.8806 deg

SMA: 7127.055 km

Apoapsis: 798.551 km

Periapsis: 699.289 km

RAAN: 112.0968 deg

Eccentricy: 0.0069637

Argument of periapsis: 289.9331 deg

Mean anomaly: 84.2722 deg

Mean motion: 14.42904576 rev/day

Mean motion (dot): 0.00002789 rev/day2

B* drag term: 0.00082482677 1/REarth

Two-line elements (TLE)

Creation date: Aug. 30, 2025, 3:38 a.m.

Reference frame: TEME

Reference center: EARTH

Epoch: Aug. 29, 2025, 9:03 p.m. UTC

TLE line 0: 0 FENGYUN 1C DEB

TLE line 1: 1 30093U 99025QW 25241.87745216 .00002789 00000-0 82483-3 0 9998

TLE line 2: 2 30093 98.8806 112.0968 0069637 289.9331 84.2722 14.42904576972914

Live tracking on map

Real-time ground track for satellite FENGYUN 1C DEB.

In-orbit conjunctions

A list of the most updated potential collisions computed for object FENGYUN 1C DEB.

Target Orbit TCA Probability of collision Miss distance Type
FENGYUN 1C DEB SSO 2025-08-27 16:03:02 0.0001135653 782.0 (m) DEBRIS
CZ-4 DEB SSO 2025-04-24 04:40:10 0.0008830125 26.0 (m) DEBRIS
ADEOS SSO 2025-01-21 21:29:02 0.000173287 408.0 (m) PAYLOAD
NOAA 12 DEB SSO 2024-06-18 03:58:12 0.0001050183 343.0 (m) DEBRIS

Associated space launch

Chinese polar orbiting meteorological satellite

FENGYUN 1C DEB was lifted into orbit during the mission ‘Long March 4B | Feng Yun 1C’, on board a Long March 4B space rocket.

The launch took place on May 10, 1999, 1:33 a.m. from Launch Complex 7.

For more information about the launch, click the button.

Launch to space Long March 4B | Feng Yun 1C
Long March 4B | Feng Yun 1C

Agency: N/A

Status: Launch Successful

Launch date: May 10, 1999, 1:33 a.m. UTC

Rocket: Long March 4B

Launch pad: Launch Complex 7

Location: Taiyuan Satellite Launch Center, People's Republic of China

...

Latest news about this satellite

There are no fresh news available about this satellite. Check back as we update our databases every day.


Newsletter sign-up

Weekly statistics, charts and insights to help you stay on top of the space industry.